Pagrindinis puslapis
METAR-TAF:

METAR-TAF

Oro uostai :

Tabas, Iranas

platuma: 33-36N, ilguma: 056-55E, Aukštis: 710 m

Dabartinis oras

Ataskaita buvo paskelbta 1 valandą ir 55 minutes, ne 08:00 UTC
Vėjas 8 kt iš Šiaurės
Temperatūra 31°C
Drėgmė 19%
Slėgis 1013 hPa
Matomumas: 8000 m

METAR: OIMT 020800Z 35008KT 8000 NSC 31/05 Q1013

Laikas: 13:25 (09:55 UTC)


TAF: trūkstamas

Orai ataskaitas ir orų prognozės (METAR, TAF).

turimą stotys yra geltonos ir raudonos taškus žemėlapyje.

Perkelti pele per norėdami pamatyti stoties vardą.

Tada spustelėkite, norėdami matyti oro stebėjimo ir prognozės.

Norėdami pakeisti žemėlapį: spustelėkite ant žalios mygtukų su juodo kryžiaus žemyn,; žalią mygtuką su brūkšneliu, jei norite nutolinti; arba žalių rodyklių gretimoms žemėlapius.


METAR-TAF: